{"data":{"norad_id":54075,"epoch":"2026-09-20T03:40:14.336544Z","epoch_age_seconds":116160,"freshness":"FRESH","line1":"1 54075U 22136AA  26263.15294371 -.00004312  00000+0 -12719-3 0  9990","line2":"2 54075  53.1601 170.6161 0001328 122.2048 237.9082 15.31718989216488","mean_motion":15.31718989,"eccentricity":0.0001328,"inclination_deg":53.1601,"raan_deg":170.6161,"arg_perigee_deg":122.2048,"mean_anomaly_deg":237.9082,"bstar":-0.00012719,"rev_number":21648,"period_min":94.012022462431,"perigee_km":469.77386724167,"apogee_km":471.59291393741,"semimajor_km":6848.8203905895,"source":"CELESTRAK","updated_at":"2026-09-21T09:00:33.080255Z"}}